www.pogodaiklimat.ru

Погода и климат >> Архив погоды >> Россия >> город Москва >> Толстопальцево


ПОГОДА в Толстопальцево

  • Прогноз погоды в Толстопальцево
  • Монитор погоды в Толстопальцево

АРХИВ ПОГОДЫ в Толстопальцево

Время (UTC), дата Ветер
(напр.,м/с)
 
Видим.   Явления Облачность Т
(С)
Тd
(С)
f
(%)
Тe
(С)
Тes
(С)
Комфортность P
(гПа)
Po
(гПа)
Тmin
(С)
Tmax
(С)
R
(мм)
R24
(мм)
S
(см)
00 10.09 штиль 0 н/о н/о +9.7 +9.4 98 +9 +9 по сезону 1021.4 998.7
03 10.09 штиль 0 н/о н/о +8.3 +8.0 98 +7 +7 по сезону 1023.0 1000.1 +8.3
06 10.09 штиль 0 н/о н/о +17.2 +12.7 75 +17 +17 тепло 1032.3 1009.9 +8.3
09 10.09 В 2 н/о н/о +22.7 +12.7 53 +25 +25 комфорт 1042.5 1020.4
12 10.09 ЮВ 2 н/о н/о +24.8 +10.5 41 +26 +26 жарко 1035.8 1014.0
15 10.09 ЮВ 2 н/о н/о +23.6 +11.7 47 +25 +25 комфорт 1028.1 1006.4
18 10.09 С 1 н/о н/о +15.1 +12.8 86 +16 +16 тепло 1017.6 995.4 +24.8
21 10.09 штиль 0 н/о н/о +13.0 +12.0 94 +12 +12 тепло 1019.9 997.5
00 11.09 штиль 0 н/о н/о +11.0 +10.2 95 +10 +10 тепло 1022.5 999.9
03 11.09 штиль 0 н/о н/о +10.5 +10.0 97 +10 +10 по сезону 1024.3 1001.6 +10.5
06 11.09 ЮВ 2 н/о н/о +17.0 +11.4 70 +17 +17 тепло 1032.1 1009.7 +10.5
09 11.09 ЮВ 2 н/о н/о +23.6 +10.0 42 +25 +25 комфорт 1043.6 1021.5
12 11.09 Ю 4 н/о н/о +25.9 +6.5 29 +26 +26 жарко 1039.6 1017.7
15 11.09 Ю 2 н/о н/о +24.3 +7.0 33 +24 +24 комфорт 1027.9 1006.2
18 11.09 штиль 0 н/о н/о +15.4 +9.4 67 +15 +15 тепло 1018.1 995.9 +26.2
21 11.09 штиль 0 н/о н/о +12.4 +9.2 81 +12 +12 тепло 1019.6 997.2
00 12.09 В 1 н/о н/о +10.5 +8.7 89 +10 +10 тепло 1021.5 998.9
03 12.09 штиль 0 н/о н/о +8.2 +7.7 97 +7 +7 по сезону 1022.6 999.8 +8.2
06 12.09 Ю 2 н/о н/о +17.1 +8.5 57 +17 +17 тепло 1031.9 1009.5 +8.2
12 12.09 Ю 4 н/о н/о +25.9 +5.0 26 +25 +25 комфорт 1036.8 1015.0
15 12.09 Ю 2 н/о н/о +23.7 +6.0 32 +24 +24 комфорт 1024.0 1002.3
18 12.09 Ю 1 н/о н/о +16.1 +8.0 59 +17 +17 тепло 1015.6 993.5 +26.0
21 12.09 Ю 1 н/о н/о +15.6 +7.2 57 +16 +16 тепло 1016.2 994.1
00 13.09 Ю 1 н/о н/о +14.7 +7.2 61 +15 +15 тепло 1018.6 996.3
03 13.09 Ю 1 н/о н/о +11.1 +7.4 78 +11 +11 тепло 1016.2 993.8 +11.1
06 13.09 Ю 2 н/о н/о +16.5 +8.4 59 +17 +17 тепло 1023.5 1001.3 +10.9
09 13.09 ЮЗ 3 н/о н/о +21.3 +10.4 50 +23 +23 комфорт 1030.1 1008.1
12 13.09 ЮЗ 4 н/о н/о +21.7 +9.2 45 +23 +23 комфорт 1024.8 1003.0
15 13.09 ЮЗ 3 н/о н/о +20.3 +8.5 47 +22 +22 комфорт 1015.3 993.6
18 13.09 Ю 1 н/о н/о +17.8 +9.5 58 +19 +19 тепло 1010.5 988.7 +22.9
21 13.09 Ю 3 н/о н/о +15.9 +9.5 66 +15 +15 тепло 1008.9 987.0
00 14.09 Ю 4 н/о н/о +14.9 +11.0 77 +14 +14 тепло 1007.7 985.7
03 14.09 З 5 н/о н/о +13.7 +9.2 74 +12 +12 тепло 1006.3 984.2 +13.7
06 14.09 З 4 н/о н/о +13.1 +7.0 66 +12 +12 тепло 1009.1 986.9 +12.6
09 14.09 З 4
{13}
н/о н/о +13.7 +4.8 55 +12 +12 по сезону 1013.4 991.2
12 14.09 З 4
{13}
н/о н/о +15.3 +2.7 43 +14 +14 по сезону 1020.2 997.9
15 14.09 З 3 н/о н/о +13.6 +3.0 49 +13 +13 тепло 1016.8 994.5
18 14.09 ЮЗ 2 н/о н/о +11.1 +4.7 65 +10 +10 по сезону 1010.1 987.8 +15.9
21 14.09 З 2 н/о н/о +7.9 +4.7 80 +6 +6 по сезону 1009.7 987.1
00 15.09 ЮЗ 2 н/о н/о +7.3 +4.5 82 +5 +5 по сезону 1012.4 989.7
03 15.09 ЮЗ 2 н/о н/о +6.5 +4.8 89 +4 +4 прохладно 1013.5 990.7 +6.5
06 15.09 З 3 н/о н/о +7.8 +4.7 81 +5 +5 прохладно 1016.5 993.7 +5.8
09 15.09 ЮЗ 4 н/о н/о +10.3 +4.0 65 +8 +8 по сезону 1020.0 997.4
12 15.09 З 3 н/о н/о +12.2 +2.0 50 +11 +11 по сезону 1022.7 1000.1
15 15.09 Ю 2 н/о н/о +11.7 +3.0 55 +11 +11 по сезону 1012.5 990.2
18 15.09 Ю 3 н/о н/о +8.7 +7.7 93 +6 +6 по сезону 1005.2 982.8 +12.6 2
21 15.09 Ю 3
{14}
н/о н/о +8.9 +7.8 93 +6 +6 по сезону 1003.0 980.6
00 16.09 ЮЗ 3
{14}
н/о н/о +9.7 +8.2 90 +7 +7 по сезону 1001.3 979.0
03 16.09 Ю 4 н/о н/о +9.8 +8.2 90 +7 +7 по сезону 999.1 976.9 +8.5 4
06 16.09 ЮЗ 3 н/о н/о +10.6 +8.7 88 +9 +9 по сезону 999.5 977.3 +8.5 2
09 16.09 З 4 н/о н/о +11.9 +7.7 75 +10 +10 по сезону 1002.6 980.5
15 16.09 ЮЗ 4
{13}
н/о н/о +12.8 +7.4 70 +11 +11 по сезону 999.4 977.4 2

 

Местоположение метеостанции Толстопальцево (город Москва, Россия): широта 55.59 долгота 37.21 высота над уровнем моря 187 м.

В архиве по умолчанию представлена погода в Толстопальцево за последнюю неделю. Архивные данные за месяц целиком и за предыдущие месяцы, начиная с января 2011 года, Вы можете получить, выбрав интересующий диапазон дат из раскрывающегося списка и нажав кнопку "Ввод!".


*Определитесь, кто Вы:
робот инопланетянин человек

Внимание! Время в таблицах - всемирное. Для получения местного времени необходимо прибавить поправку, которая равна 3 ч.

Смотрите также архив погоды в соседних городах и на ближайших метеорологических станциях:

Погода в Внуково (Московская область, Россия) (5 км)
Погода в Подмосковной (Московская область, Россия) (14 км)
Погода в Немчиновке (город Москва, Россия) (16 км)
Погода в Москве (Бутово) (город Москва, Россия) (21 км)
Погода в Михайловском (город Москва, Россия) (24 км)
Погода в Красногорске (Московская область, Россия) (26 км)
Погода в Москве (Строгино) (город Москва, Россия) (26 км)
Погода в Москве (Балчуг) (город Москва, Россия) (32 км)
Погода в Москве (Тушино) (город Москва, Россия) (33 км)
Погода в Горках Ленинских (Московская область, Россия) (37 км)

Пояснения к столбцам:

Ветер - указаны скорость ветра в м/с - средняя за 10 мин, порывы в срок и между сроками (в фигурных скобках) и направление, откуда дует ветер: С - северный, СВ - северо-восточный, В - восточный, ЮВ - юго-восточный, Ю - южный, ЮЗ - юго-западный, З - западный, СЗ - северо-западный.
Видимость - горизонтальная дальность видимости в метрах или километрах. При видимости от 1 до 10 км при отсутствии осадков обычно наблюдается дымка, при ухудшении видимости до 1 км и менее - туман. В сухую погоду видимость может ухудшаться дымом, пылью или мглою.
Явления - указаны атмосферные явления, наблюдавшиеся в срок или в последний час перед сроком; фигурными скобками обозначены явления, наблюдавшиеся между сроками (за 1-3 часа до срока); квадратными скобками обозначены град или гололедные отложения с указанием их диаметра в мм.
Облачность - указаны через наклонную черту общая и нижняя облачность в баллах и высота нижней границы облаков в метрах; квадратными скобками обозначены формы облаков: Ci - перистые, Cs - перисто-слоистые, Cc - перисто-кучевые, Ac - высококучевые, As - высокослоистые, Sc - слоисто-кучевые, Ns - слоисто-дождевые, Cu - кучевые, Cb - кучево-дождевые. Подробнее классификацию облаков см. в Атласе облаков (PDF).
T - Температура воздуха - температура, измеренная на высоте 2 м над землей.
Td - Температура точки росы - температура, при понижении до которой содержащийся в воздухе водяной пар достигнет насыщения.
f - Относительная влажность воздуха - влажноcть воздуха, измеренная на высоте 2 м над землей.
Te - Эффективная температура - температура, которую ощущает одетый по сезону человек в тени. Характеристика душности погоды. При расчете учитывается влияние влажности воздуха и скорости ветра на теплоощущения человека.
Tes - Эффективная температура на солнце - температура, которую ощущает человек, с поправкой на солнечный нагрев. Характеристика знойности погоды. Зависит от высоты солнца над горизонтом, облачности и скорости ветра. Ночью, в пасмурную погоду, а также при ветре 12 м/с и более поправка равна нулю.
P - Атмосферное давление - приведенное к уровню моря атмосферное давление.
Po - Атмосферное давление - измеренное на уровне метеостанции атмосферное давление.
Tmin - Минимальная температура - минимум температуры воздуха на высоте 2 м над землей.
Tmax - Максимальная температура - максимум температуры воздуха на высоте 2 м над землей.
R - Количество осадков - Количество выпавших осадков за период времени, мм. При наведении курсора мыши на число - период времени, за который выпало указанное количество осадков.
R24 - Количество осадков - Количество выпавших осадков за 24 часа, мм.
S - Снежный покров - Высота снежного покрова, см. При наведении курсора мыши на число - состояние снежного покрова и степень покрытия местности в баллах.